| time (UTC) | temp F | wind direction | speed MPH | gust MPH | rain 1hr in | rain 24hr in | rain mn in | humidity % | barometer mb |
| 20260502234222 | 64 | 68 | 3.0 | 5.0 | 0.00 | 0.00 | 0.00 | 38 | 1001.6 |
| 20260502233953 | 64 | 65 | 2.0 | 6.0 | 0.00 | 0.00 | 0.00 | 37 | 1001.5 |
| 20260502233220 | 64 | 39 | 3.0 | 6.0 | 0.00 | 0.00 | 0.00 | 38 | 1001.5 |
| 20260502232721 | 64 | 102 | 3.0 | 7.0 | 0.00 | 0.00 | 0.00 | 37 | 1001.5 |
| 20260502232221 | 64 | 93 | 4.0 | 7.0 | 0.00 | 0.00 | 0.00 | 37 | 1001.5 |
| 20260502231720 | 65 | 92 | 4.0 | 7.0 | 0.00 | 0.00 | 0.00 | 37 | 1001.5 |
| 20260502231223 | 65 | 104 | 3.0 | 7.0 | 0.00 | 0.00 | 0.00 | 37 | 1001.5 |
| 20260502230722 | 65 | 142 | 3.0 | 6.0 | 0.00 | 0.00 | 0.00 | 38 | 1001.5 |
| 20260502230220 | 65 | 90 | 3.0 | 6.0 | 0.00 | 0.00 | 0.00 | 36 | 1001.5 |
| 20260502225721 | 65 | 358 | 4.0 | 6.0 | 0.00 | 0.00 | 0.00 | 35 | 1001.4 |
| 20260502225221 | 65 | 124 | 2.0 | 5.0 | 0.00 | 0.00 | 0.00 | 36 | 1001.4 |
| 20260502224950 | 65 | 82 | 2.0 | 5.0 | 0.00 | 0.00 | 0.00 | 36 | 1001.4 |
| 20260502224450 | 65 | 276 | 1.0 | 7.0 | 0.00 | 0.00 | 0.00 | 36 | 1001.4 |
| 20260502223720 | 65 | 131 | 3.0 | 7.0 | 0.00 | 0.00 | 0.00 | 36 | 1001.4 |
| 20260502223452 | 65 | 104 | 3.0 | 6.0 | 0.00 | 0.00 | 0.00 | 37 | 1001.5 |
| 20260502222951 | 65 | 0 | 4.0 | 6.0 | 0.00 | 0.00 | 0.00 | 36 | 1001.5 |
| 20260502222222 | 65 | 87 | 2.0 | 5.0 | 0.00 | 0.00 | 0.00 | 37 | 1001.4 |
| 20260502221719 | 65 | 182 | 2.0 | 4.0 | 0.00 | 0.00 | 0.00 | 36 | 1001.4 |
| 20260502221220 | 65 | 14 | 1.0 | 4.0 | 0.00 | 0.00 | 0.00 | 36 | 1001.4 |
| 20260502220720 | 65 | 82 | 2.0 | 9.0 | 0.00 | 0.00 | 0.00 | 37 | 1001.4 |
| 20260502220219 | 65 | 113 | 4.0 | 9.0 | 0.00 | 0.00 | 0.00 | 36 | 1001.4 |
| 20260502215720 | 65 | 82 | 4.0 | 9.0 | 0.00 | 0.00 | 0.00 | 36 | 1001.3 |
| 20260502215220 | 65 | 56 | 4.0 | 7.0 | 0.00 | 0.00 | 0.00 | 35 | 1001.3 |
| 20260502214717 | 65 | 104 | 2.0 | 11.0 | 0.00 | 0.00 | 0.00 | 36 | 1001.3 |
| 20260502214218 | 65 | 59 | 6.0 | 11.0 | 0.00 | 0.00 | 0.00 | 36 | 1001.3 |
| 20260502213720 | 65 | 127 | 2.0 | 10.0 | 0.00 | 0.00 | 0.00 | 36 | 1001.3 |
| 20260502213219 | 65 | 111 | 5.0 | 10.0 | 0.00 | 0.00 | 0.00 | 37 | 1001.4 |
| 20260502212719 | 65 | 32 | 3.0 | 12.0 | 0.00 | 0.00 | 0.00 | 36 | 1001.3 |
| 20260502212218 | 65 | 6 | 4.0 | 12.0 | 0.00 | 0.00 | 0.00 | 36 | 1001.4 |
| 20260502211718 | 66 | 111 | 3.0 | 7.0 | 0.00 | 0.00 | 0.00 | 36 | 1001.3 |
| 20260502211218 | 66 | 283 | 2.0 | 10.0 | 0.00 | 0.00 | 0.00 | 35 | 1001.3 |
| 20260502210718 | 66 | 299 | 4.0 | 10.0 | 0.00 | 0.00 | 0.00 | 34 | 1001.3 |
| 20260502210451 | 66 | 82 | 3.0 | 10.0 | 0.00 | 0.00 | 0.00 | 35 | 1001.4 |
| 20260502205718 | 66 | 69 | 4.0 | 10.0 | 0.00 | 0.00 | 0.00 | 34 | 1001.3 |
| 20260502205218 | 66 | 4 | 2.0 | 6.0 | 0.00 | 0.00 | 0.00 | 35 | 1001.4 |
| 20260502204718 | 65 | 24 | 3.0 | 6.0 | 0.00 | 0.00 | 0.00 | 34 | 1001.5 |
| 20260502204219 | 66 | 94 | 4.0 | 6.0 | 0.00 | 0.00 | 0.00 | 35 | 1001.4 |
| 20260502203716 | 66 | 1 | 3.0 | 7.0 | 0.00 | 0.00 | 0.00 | 35 | 1001.6 |
| 20260502203219 | 66 | 75 | 5.0 | 9.0 | 0.00 | 0.00 | 0.00 | 37 | 1001.5 |
| 20260502202717 | 66 | 45 | 4.0 | 13.0 | 0.00 | 0.00 | 0.00 | 37 | 1001.6 |
| 20260502202217 | 67 | 76 | 4.0 | 13.0 | 0.00 | 0.00 | 0.00 | 37 | 1001.5 |
| 20260502201716 | 67 | 11 | 7.0 | 12.0 | 0.00 | 0.00 | 0.00 | 35 | 1001.6 |
| 20260502201217 | 68 | 45 | 5.0 | 9.0 | 0.00 | 0.00 | 0.00 | 37 | 1001.4 |
| 20260502200948 | 67 | 39 | 2.0 | 10.0 | 0.00 | 0.00 | 0.00 | 36 | 1001.5 |
| 20260502200217 | 67 | 197 | 3.0 | 10.0 | 0.00 | 0.00 | 0.00 | 39 | 1001.5 |
| 20260502195720 | 67 | 326 | 3.0 | 7.0 | 0.00 | 0.00 | 0.00 | 39 | 1001.7 |
| 20260502195216 | 66 | 87 | 4.0 | 10.0 | 0.00 | 0.00 | 0.00 | 40 | 1001.6 |
| 20260502194715 | 66 | 62 | 6.0 | 11.0 | 0.00 | 0.00 | 0.00 | 37 | 1001.7 |
| 20260502194216 | 65 | 94 | 6.0 | 13.0 | 0.00 | 0.00 | 0.00 | 40 | 1001.8 |
| 20260502193719 | 66 | 73 | 5.0 | 13.0 | 0.00 | 0.00 | 0.00 | 36 | 1001.7 |
| 20260502193216 | 66 | 92 | 4.0 | 11.0 | 0.00 | 0.00 | 0.00 | 36 | 1001.7 |
| 20260502192715 | 66 | 56 | 3.0 | 11.0 | 0.00 | 0.00 | 0.00 | 37 | 1001.6 |
| 20260502192215 | 65 | 69 | 4.0 | 9.0 | 0.00 | 0.00 | 0.00 | 39 | 1001.8 |
| 20260502191716 | 65 | 196 | 3.0 | 6.0 | 0.00 | 0.00 | 0.00 | 40 | 1001.7 |
| 20260502191215 | 65 | 196 | 3.0 | 6.0 | 0.00 | 0.00 | 0.00 | 40 | 1001.8 |
| 20260502190714 | 64 | 275 | 3.0 | 6.0 | 0.00 | 0.00 | 0.00 | 40 | 1001.7 |
| 20260502190215 | 64 | 111 | 2.0 | 12.0 | 0.00 | 0.00 | 0.00 | 41 | 1001.9 |
| 20260502185714 | 64 | 355 | 5.0 | 12.0 | 0.00 | 0.00 | 0.00 | 40 | 1001.9 |
| 20260502185445 | 65 | 44 | 5.0 | 11.0 | 0.00 | 0.00 | 0.00 | 38 | 1001.9 |
| 20260502184713 | 65 | 106 | 5.0 | 11.0 | 0.00 | 0.00 | 0.00 | 38 | 1001.7 |
| 20260502184214 | 65 | 54 | 5.0 | 13.0 | 0.00 | 0.00 | 0.00 | 39 | 1001.8 |
| 20260502183714 | 64 | 71 | 7.0 | 13.0 | 0.00 | 0.00 | 0.00 | 40 | 1001.8 |
| 20260502183213 | 64 | 86 | 2.0 | 13.0 | 0.00 | 0.00 | 0.00 | 42 | 1001.8 |
| 20260502182944 | 65 | 69 | 5.0 | 14.0 | 0.00 | 0.00 | 0.00 | 39 | 1001.8 |
| 20260502182213 | 65 | 86 | 2.0 | 14.0 | 0.00 | 0.00 | 0.00 | 40 | 1001.7 |
| 20260502181712 | 65 | 28 | 2.0 | 10.0 | 0.00 | 0.00 | 0.00 | 41 | 1001.7 |
| 20260502181444 | 65 | 48 | 4.0 | 7.0 | 0.00 | 0.00 | 0.00 | 40 | 1001.8 |
| 20260502180713 | 65 | 1 | 2.0 | 4.0 | 0.00 | 0.00 | 0.00 | 41 | 1001.9 |
| 20260502180212 | 64 | 265 | 3.0 | 9.0 | 0.00 | 0.00 | 0.00 | 44 | 1001.8 |
| 20260502170211 | 64 | 52 | 4.0 | 9.0 | 0.00 | 0.00 | 0.00 | 43 | 1002.3 |
| 20260502164210 | 64 | 4 | 5.0 | 11.0 | 0.00 | 0.00 | 0.00 | 44 | 1002.2 |
| 20260502163712 | 64 | 58 | 4.0 | 14.0 | 0.00 | 0.00 | 0.00 | 42 | 1002.1 |
| 20260502163210 | 64 | 354 | 4.0 | 14.0 | 0.00 | 0.00 | 0.00 | 43 | 1002.1 |
| 20260502162711 | 64 | 55 | 5.0 | 12.0 | 0.00 | 0.00 | 0.00 | 45 | 1002.0 |
| 20260502162211 | 64 | 58 | 6.0 | 12.0 | 0.00 | 0.00 | 0.00 | 44 | 1002.1 |
| 20260502161713 | 64 | 63 | 4.0 | 14.0 | 0.00 | 0.00 | 0.00 | 44 | 1001.9 |
| 20260502161209 | 64 | 100 | 3.0 | 9.0 | 0.00 | 0.00 | 0.00 | 47 | 1001.9 |
| 20260502160711 | 64 | 14 | 5.0 | 9.0 | 0.00 | 0.00 | 0.00 | 46 | 1002.0 |
| 20260502160210 | 64 | 75 | 2.0 | 6.0 | 0.00 | 0.00 | 0.00 | 48 | 1001.9 |
| 20260502152209 | 61 | 266 | 1.0 | 5.0 | 0.00 | 0.00 | 0.00 | 61 | 1001.9 |
| 20260502151938 | 60 | 110 | 2.0 | 5.0 | 0.00 | 0.00 | 0.00 | 64 | 1001.9 |
| 20260502151208 | 60 | 323 | 1.0 | 5.0 | 0.00 | 0.00 | 0.00 | 63 | 1001.9 |
| 20260502150707 | 59 | 355 | 1.0 | 7.0 | 0.00 | 0.00 | 0.00 | 64 | 1001.9 |
| 20260502150439 | 58 | 0 | 4.0 | 7.0 | 0.00 | 0.00 | 0.00 | 64 | 1001.8 |
| 20260502130703 | 43 | 237 | 0.0 | 2.0 | 0.00 | 0.00 | 0.00 | 95 | 1001.9 |
| 20260502130206 | 42 | 237 | 0.0 | 2.0 | 0.00 | 0.00 | 0.00 | 94 | 1001.8 |
| 20260502123703 | 41 | 237 | 0.0 | 2.0 | 0.00 | 0.00 | 0.00 | 94 | 1001.7 |
| 20260502123205 | 41 | 237 | 0.0 | 2.0 | 0.00 | 0.00 | 0.00 | 94 | 1001.7 |
| 20260502122203 | 40 | 237 | 0.0 | 1.0 | 0.00 | 0.00 | 0.00 | 93 | 1001.6 |
| 20260502121703 | 39 | 237 | 0.0 | 1.0 | 0.00 | 0.00 | 0.00 | 93 | 1001.6 |
| 20260502121202 | 39 | 237 | 0.0 | 1.0 | 0.00 | 0.00 | 0.00 | 93 | 1001.5 |
| 20260502120702 | 39 | 237 | 0.0 | 1.0 | 0.00 | 0.00 | 0.00 | 93 | 1001.5 |
| 20260502120203 | 39 | 237 | 0.0 | 2.0 | 0.00 | 0.00 | 0.00 | 93 | 1001.4 |
| 20260502115701 | 39 | 237 | 1.0 | 2.0 | 0.00 | 0.00 | 0.00 | 93 | 1001.3 |
| 20260502115201 | 39 | 237 | 1.0 | 2.0 | 0.00 | 0.00 | 0.00 | 93 | 1001.3 |
| 20260502114931 | 39 | 237 | 1.0 | 2.0 | 0.00 | 0.00 | 0.00 | 93 | 1001.3 |
| 20260502114200 | 38 | 97 | 0.0 | 0.0 | 0.00 | 0.00 | 0.00 | 93 | 1001.2 |
| 20260502113702 | 38 | 97 | 0.0 | 1.0 | 0.00 | 0.00 | 0.00 | 92 | 1001.1 |
| 20260502113201 | 38 | 97 | 0.0 | 2.0 | 0.00 | 0.00 | 0.00 | 92 | 1001.1 |
| 20260502112700 | 38 | 97 | 1.0 | 2.0 | 0.00 | 0.00 | 0.00 | 92 | 1001.1 |
| 20260502112201 | 38 | 97 | 1.0 | 2.0 | 0.00 | 0.00 | 0.00 | 92 | 1001.0 |
| 20260502111701 | 38 | 97 | 0.0 | 0.0 | 0.00 | 0.00 | 0.00 | 92 | 1001.0 |
| 20260502111432 | 38 | 97 | 0.0 | 1.0 | 0.00 | 0.00 | 0.00 | 92 | 1001.1 |
| 20260502110701 | 38 | 97 | 0.0 | 1.0 | 0.00 | 0.00 | 0.00 | 92 | 1001.0 |
| 20260502110201 | 38 | 97 | 0.0 | 2.0 | 0.00 | 0.00 | 0.00 | 92 | 1000.9 |
| 20260502105700 | 38 | 97 | 0.0 | 2.0 | 0.00 | 0.00 | 0.00 | 92 | 1000.8 |
| 20260502105200 | 38 | 97 | 0.0 | 1.0 | 0.00 | 0.00 | 0.00 | 92 | 1000.8 |
| 20260502104700 | 38 | 97 | 0.0 | 0.0 | 0.00 | 0.00 | 0.00 | 91 | 1000.8 |
| 20260502104431 | 38 | 97 | 0.0 | 3.0 | 0.00 | 0.00 | 0.00 | 91 | 1000.8 |
| 20260502103659 | 38 | 97 | 0.0 | 3.0 | 0.00 | 0.00 | 0.00 | 91 | 1000.7 |
| 20260502103200 | 38 | 97 | 0.0 | 1.0 | 0.00 | 0.00 | 0.00 | 91 | 1000.7 |
| 20260502102700 | 38 | 97 | 0.0 | 1.0 | 0.00 | 0.00 | 0.00 | 91 | 1000.6 |
| 20260502102159 | 39 | 97 | 0.0 | 1.0 | 0.00 | 0.00 | 0.00 | 91 | 1000.7 |
| 20260502101931 | 39 | 97 | 0.0 | 0.0 | 0.00 | 0.00 | 0.00 | 91 | 1000.7 |
| 20260502101200 | 39 | 97 | 0.0 | 2.0 | 0.00 | 0.00 | 0.00 | 91 | 1000.7 |
| 20260502100659 | 39 | 97 | 0.0 | 2.0 | 0.00 | 0.00 | 0.00 | 92 | 1000.9 |
| 20260502100159 | 38 | 97 | 1.0 | 2.0 | 0.00 | 0.00 | 0.00 | 91 | 1000.9 |
| 20260502091157 | 39 | 103 | 0.0 | 0.0 | 0.00 | 0.00 | 0.00 | 90 | 1000.5 |
| 20260502090656 | 39 | 103 | 0.0 | 0.0 | 0.00 | 0.00 | 0.00 | 90 | 1000.5 |
| 20260502090157 | 39 | 103 | 0.0 | 0.0 | 0.00 | 0.00 | 0.00 | 90 | 1000.5 |
| 20260502071152 | 41 | 103 | 0.0 | 2.0 | 0.00 | 0.00 | 0.00 | 88 | 1000.9 |
| 20260502070653 | 41 | 103 | 1.0 | 2.0 | 0.00 | 0.00 | 0.00 | 88 | 1001.1 |
| 20260502070152 | 41 | 103 | 0.0 | 0.0 | 0.00 | 0.00 | 0.00 | 88 | 1001.2 |
| 20260502065652 | 41 | 103 | 0.0 | 0.0 | 0.00 | 0.00 | 0.00 | 87 | 1001.2 |
| 20260502065151 | 41 | 103 | 0.0 | 1.0 | 0.00 | 0.00 | 0.00 | 87 | 1001.1 |
| 20260502064653 | 41 | 103 | 0.0 | 2.0 | 0.00 | 0.00 | 0.00 | 87 | 1001.1 |
| 20260502064151 | 42 | 103 | 1.0 | 2.0 | 0.00 | 0.00 | 0.00 | 87 | 1001.1 |
| 20260502063653 | 42 | 103 | 0.0 | 1.0 | 0.00 | 0.00 | 0.00 | 87 | 1001.2 |
| 20260502063150 | 42 | 103 | 0.0 | 1.0 | 0.00 | 0.00 | 0.00 | 86 | 1001.2 |
| 20260502062650 | 42 | 103 | 0.0 | 1.0 | 0.00 | 0.00 | 0.00 | 86 | 1001.3 |
| 20260502062151 | 42 | 103 | 0.0 | 1.0 | 0.00 | 0.00 | 0.00 | 86 | 1001.2 |
| 20260502061651 | 42 | 103 | 0.0 | 0.0 | 0.00 | 0.00 | 0.00 | 86 | 1001.3 |
| 20260502061150 | 42 | 103 | 0.0 | 0.0 | 0.00 | 0.00 | 0.00 | 86 | 1001.3 |
| 20260502060650 | 42 | 103 | 0.0 | 0.0 | 0.00 | 0.00 | 0.00 | 86 | 1001.4 |
| 20260502060151 | 43 | 103 | 0.0 | 0.0 | 0.00 | 0.00 | 0.00 | 85 | 1001.4 |
| 20260502055650 | 43 | 103 | 0.0 | 0.0 | 0.00 | 0.00 | 0.00 | 85 | 1001.4 |
| 20260502055149 | 43 | 103 | 0.0 | 0.0 | 0.00 | 0.00 | 0.00 | 85 | 1001.3 |
| 20260502054649 | 43 | 103 | 0.0 | 0.0 | 0.00 | 0.00 | 0.00 | 85 | 1001.2 |
| 20260502054149 | 43 | 103 | 0.0 | 1.0 | 0.00 | 0.00 | 0.00 | 85 | 1001.4 |
| 20260502053651 | 43 | 103 | 0.0 | 2.0 | 0.00 | 0.00 | 0.00 | 85 | 1001.2 |
| 20260502053147 | 44 | 103 | 1.0 | 2.0 | 0.00 | 0.00 | 0.00 | 85 | 1001.1 |
| 20260502052701 | 44 | 103 | 1.0 | 2.0 | 0.00 | 0.00 | 0.00 | 84 | 1001.3 |
| 20260502052419 | 44 | 103 | 0.0 | 0.0 | 0.00 | 0.00 | 0.00 | 83 | 1001.2 |
| 20260502051649 | 44 | 103 | 0.0 | 0.0 | 0.00 | 0.00 | 0.00 | 83 | 1001.2 |
| 20260502051147 | 44 | 103 | 0.0 | 0.0 | 0.00 | 0.00 | 0.00 | 82 | 1001.2 |
| 20260502050645 | 44 | 103 | 0.0 | 0.0 | 0.00 | 0.00 | 0.00 | 82 | 1001.2 |
| 20260502050145 | 44 | 103 | 0.0 | 0.0 | 0.00 | 0.00 | 0.00 | 82 | 1001.1 |
| 20260502045646 | 45 | 103 | 0.0 | 0.0 | 0.00 | 0.00 | 0.00 | 82 | 1001.2 |
| 20260502045148 | 45 | 103 | 0.0 | 1.0 | 0.00 | 0.00 | 0.00 | 81 | 1001.2 |
| 20260502044645 | 45 | 103 | 0.0 | 1.0 | 0.00 | 0.00 | 0.00 | 81 | 1001.1 |
| 20260502044146 | 45 | 103 | 1.0 | 1.0 | 0.00 | 0.00 | 0.00 | 81 | 1001.0 |
| 20260502043645 | 46 | 103 | 0.0 | 0.0 | 0.00 | 0.00 | 0.00 | 80 | 1001.1 |
| 20260502043145 | 46 | 103 | 0.0 | 0.0 | 0.00 | 0.00 | 0.00 | 80 | 1001.1 |
| 20260502042146 | 46 | 103 | 0.0 | 1.0 | 0.00 | 0.00 | 0.00 | 79 | 1001.2 |
| 20260502041645 | 47 | 103 | 0.0 | 1.0 | 0.00 | 0.00 | 0.00 | 79 | 1001.1 |
| 20260502041144 | 47 | 103 | 0.0 | 2.0 | 0.00 | 0.00 | 0.00 | 78 | 1001.2 |
| 20260502040644 | 47 | 103 | 0.0 | 2.0 | 0.00 | 0.00 | 0.00 | 78 | 1001.1 |
| 20260502040144 | 47 | 103 | 0.0 | 0.0 | 0.00 | 0.00 | 0.00 | 77 | 1001.2 |
| 20260502035916 | 48 | 103 | 0.0 | 1.0 | 0.00 | 0.00 | 0.00 | 77 | 1001.2 |
| 20260502034650 | 48 | 103 | 0.0 | 0.0 | 0.00 | 0.00 | 0.00 | 75 | 1001.3 |
| 20260502034148 | 48 | 103 | 0.0 | 0.0 | 0.00 | 0.00 | 0.00 | 75 | 1001.4 |
| 20260502033645 | 48 | 103 | 0.0 | 0.0 | 0.00 | 0.00 | 0.00 | 74 | 1001.5 |
| 20260502033144 | 49 | 103 | 0.0 | 0.0 | 0.00 | 0.00 | 0.00 | 74 | 1001.6 |
| 20260502032643 | 49 | 103 | 0.0 | 1.0 | 0.00 | 0.00 | 0.00 | 74 | 1001.5 |
| 20260502032143 | 49 | 103 | 0.0 | 2.0 | 0.00 | 0.00 | 0.00 | 73 | 1001.4 |
| 20260502031643 | 49 | 103 | 0.0 | 2.0 | 0.00 | 0.00 | 0.00 | 72 | 1001.5 |
| 20260502031144 | 49 | 103 | 0.0 | 1.0 | 0.00 | 0.00 | 0.00 | 72 | 1001.6 |
| 20260502030643 | 50 | 103 | 0.0 | 1.0 | 0.00 | 0.00 | 0.00 | 72 | 1001.6 |
| 20260502030144 | 50 | 103 | 0.0 | 2.0 | 0.00 | 0.00 | 0.00 | 72 | 1001.5 |
| 20260502025644 | 50 | 103 | 1.0 | 2.0 | 0.00 | 0.00 | 0.00 | 72 | 1001.6 |
| 20260502025143 | 50 | 103 | 0.0 | 1.0 | 0.00 | 0.00 | 0.00 | 71 | 1001.6 |
| 20260502024644 | 51 | 103 | 0.0 | 2.0 | 0.00 | 0.00 | 0.00 | 69 | 1001.6 |
| 20260502024143 | 51 | 103 | 0.0 | 2.0 | 0.00 | 0.00 | 0.00 | 69 | 1001.6 |
| 20260502023645 | 51 | 103 | 0.0 | 1.0 | 0.00 | 0.00 | 0.00 | 68 | 1001.6 |
| 20260502023413 | 51 | 103 | 0.0 | 2.0 | 0.00 | 0.00 | 0.00 | 69 | 1001.6 |
| 20260502022643 | 52 | 103 | 1.0 | 2.0 | 0.00 | 0.00 | 0.00 | 68 | 1001.4 |
| 20260502022143 | 52 | 103 | 2.0 | 2.0 | 0.00 | 0.00 | 0.00 | 68 | 1001.4 |
| 20260502021642 | 52 | 103 | 1.0 | 2.0 | 0.00 | 0.00 | 0.00 | 67 | 1001.3 |
| 20260502021143 | 53 | 103 | 1.0 | 2.0 | 0.00 | 0.00 | 0.00 | 66 | 1001.3 |
| 20260502020641 | 53 | 103 | 1.0 | 2.0 | 0.00 | 0.00 | 0.00 | 65 | 1001.2 |
| 20260502020142 | 53 | 103 | 1.0 | 2.0 | 0.00 | 0.00 | 0.00 | 65 | 1001.1 |
| 20260502015642 | 54 | 103 | 1.0 | 2.0 | 0.00 | 0.00 | 0.00 | 64 | 1001.1 |
| 20260502015141 | 54 | 103 | 1.0 | 2.0 | 0.00 | 0.00 | 0.00 | 63 | 1001.2 |
| 20260502014641 | 55 | 103 | 1.0 | 2.0 | 0.00 | 0.00 | 0.00 | 62 | 1001.1 |
| 20260502014142 | 56 | 103 | 1.0 | 2.0 | 0.00 | 0.00 | 0.00 | 60 | 1001.1 |
| 20260502013642 | 56 | 103 | 1.0 | 2.0 | 0.00 | 0.00 | 0.00 | 59 | 1000.9 |
| 20260502013142 | 56 | 103 | 0.0 | 2.0 | 0.00 | 0.00 | 0.00 | 57 | 1000.8 |
| 20260502012641 | 57 | 103 | 0.0 | 2.0 | 0.00 | 0.00 | 0.00 | 57 | 1000.7 |
| 20260502012141 | 57 | 103 | 2.0 | 3.0 | 0.00 | 0.00 | 0.00 | 56 | 1000.6 |
| 20260502011912 | 58 | 103 | 1.0 | 3.0 | 0.00 | 0.00 | 0.00 | 54 | 1000.5 |
| 20260502011141 | 59 | 103 | 2.0 | 2.0 | 0.00 | 0.00 | 0.00 | 52 | 1000.4 |
| 20260502010640 | 60 | 103 | 0.0 | 2.0 | 0.00 | 0.00 | 0.00 | 50 | 1000.3 |
| 20260502010141 | 60 | 103 | 1.0 | 2.0 | 0.00 | 0.00 | 0.00 | 49 | 1000.1 |
| 20260502005911 | 61 | 103 | 1.0 | 2.0 | 0.00 | 0.00 | 0.00 | 47 | 999.9 |
| 20260502005141 | 62 | 103 | 0.0 | 2.0 | 0.00 | 0.00 | 0.00 | 45 | 999.9 |
| 20260502004642 | 62 | 103 | 1.0 | 1.0 | 0.00 | 0.00 | 0.00 | 43 | 999.8 |
| 20260502004141 | 62 | 103 | 0.0 | 2.0 | 0.00 | 0.00 | 0.00 | 42 | 999.8 |
| 20260502003640 | 63 | 103 | 0.0 | 3.0 | 0.00 | 0.00 | 0.00 | 41 | 999.7 |
| 20260502003139 | 63 | 103 | 1.0 | 3.0 | 0.00 | 0.00 | 0.00 | 39 | 999.5 |
| 20260502002641 | 63 | 103 | 0.0 | 3.0 | 0.00 | 0.00 | 0.00 | 39 | 999.5 |
| 20260502002141 | 64 | 87 | 2.0 | 5.0 | 0.00 | 0.00 | 0.00 | 38 | 999.3 |
| 20260502001912 | 64 | 0 | 2.0 | 6.0 | 0.00 | 0.00 | 0.00 | 36 | 999.2 |
| 20260502001140 | 64 | 31 | 2.0 | 6.0 | 0.00 | 0.00 | 0.00 | 36 | 999.2 |
| 20260502000639 | 64 | 71 | 3.0 | 6.0 | 0.00 | 0.00 | 0.00 | 36 | 999.2 |
| 20260502000411 | 64 | 76 | 3.0 | 5.0 | 0.00 | 0.00 | 0.00 | 35 | 999.1 |
| 20260501235643 | 65 | 106 | 2.0 | 5.0 | 0.00 | 0.00 | 0.00 | 35 | 999.1 |
| 20260501235138 | 65 | 94 | 2.0 | 5.0 | 0.00 | 0.00 | 0.00 | 34 | 999.1 |
| 20260501234639 | 65 | 76 | 2.0 | 4.0 | 0.00 | 0.00 | 0.00 | 34 | 999.1 |